Location: Unspecified
(35.6961°N, 0.0000°E)
Time: 10:30:19
(UTC+00:00)

Explorer 11/Cluster Stage 4 - Pass Details

Date: 29 May 2019
Orbit: 467 x 1260 km, 28.8° (Epoch: 15 June)

Event Time Altitude Azimuth Distance (km) Brightness Sun altitude
Rises 22:42:01 0° 219° (SW) 4,167 - -29.9°
Reaches altitude 10° 22:45:43 10° 205° (SSW) 3,145 - -30.2°
Maximum altitude 22:51:31 23° 158° (SSE) 2,208 - -30.5°
Drops below altitude 10° 22:56:45 10° 110° (ESE) 2,812 - -30.8°
Sets 22:59:50 0° 96° (E) 3,627 - -31.0°
